DW2889 Weather Reports


time (UTC)temp
F
wind
direction
speed
knots
gust
knots
rain 1hr
in
rain 24hr
in
rain mn
in
humidity
%
barometer
mb
20260505170009 55 305 1.7 3.5 0.00 0.00 0.00 87 1015.4
20260505164504 54 321 1.7 3.5 0.00 0.00 0.00 87 1015.3
20260505163002 54 202 0.9 3.5 0.00 0.00 0.00 88 1015.3
20260505161502 54 309 0.9 4.3 0.00 0.00 0.00 88 1015.2
20260505153059 53 200 0.9 2.6 0.00 0.00 0.00 90 1015.2
20260505151608 53 172 1.7 3.5 0.00 0.00 0.00 89 1015.1
20260505124548 52 164 0.0 2.6 0.00 0.00 0.00 89 1014.1
20260505123043 52 229 0.0 2.6 0.00 0.00 0.00 89 1014.0
20260505121543 52 166 0.9 3.5 0.00 0.00 0.00 89 1014.0
20260505120048 52 174 0.9 4.3 0.00 0.00 0.00 89 1013.9
20260505114545 52 240 0.9 3.5 0.00 0.00 0.00 89 1013.8
20260505113039 52 180 0.0 4.3 0.00 0.00 0.00 89 1013.9
20260505111538 52 231 0.0 3.5 0.00 0.00 0.00 89 1013.8
20260505101539 52 161 0.9 3.5 0.00 0.00 0.00 89 1013.2
20260505100032 52 320 0.0 1.7 0.00 0.00 0.00 89 1013.3
20260505094531 52 178 0.0 2.6 0.00 0.00 0.00 89 1013.2
20260505093027 52 343 0.0 3.5 0.00 0.00 0.00 88 1013.1
20260505091526 52 246 0.0 4.3 0.00 0.00 0.00 87 1012.9
20260505090023 52 248 0.9 4.3 0.00 0.00 0.00 87 1012.9
20260505084533 52 311 0.0 3.5 0.00 0.00 0.00 87 1012.7
20260505083020 53 14 1.7 6.1 0.00 0.00 0.00 86 1012.7
20260505081518 53 290 0.9 4.3 0.00 0.00 0.00 85 1012.7
20260505080020 54 224 0.9 4.3 0.00 0.00 0.00 85 1012.6
20260505074513 54 210 0.9 6.1 0.00 0.00 0.00 84 1012.4
20260505073011 55 217 0.9 7.0 0.00 0.00 0.00 84 1012.2
20260505071509 55 180 0.9 7.0 0.00 0.00 0.00 84 1012.0
20260505070007 55 199 0.9 5.2 0.00 0.00 0.00 83 1012.0
20260505064505 55 197 1.7 6.1 0.00 0.00 0.00 83 1011.8
20260505063009 56 214 1.7 4.3 0.00 0.00 0.00 82 1011.6
20260505061505 56 257 1.7 5.2 0.00 0.00 0.00 81 1011.4
20260505060004 57 238 0.9 4.3 0.00 0.00 0.00 80 1011.3
20260505054503 58 306 0.9 4.3 0.00 0.00 0.00 79 1011.3
20260505053003 59 325 0.9 5.2 0.00 0.00 0.00 77 1011.1
20260505051503 61 205 0.9 4.3 0.00 0.00 0.00 76 1011.1
20260505041605 62 217 0.9 5.2 0.00 0.00 0.00 76 1010.2
20260505041501 62 296 1.7 5.2 0.00 0.00 0.00 76 1010.2
20260505040100 63 286 0.0 7.0 0.00 0.00 0.00 77 1010.0
20260505034559 63 219 1.7 6.1 0.00 0.00 0.00 76 1009.8
20260505033103 64 236 0.9 4.3 0.00 0.00 0.00 77 1009.7
20260505031607 65 279 0.9 6.1 0.00 0.00 0.00 75 1009.5
20260505030106 66 234 0.9 3.5 0.00 0.00 0.00 76 1009.4
20260505024605 66 266 0.0 4.3 0.00 0.00 0.00 75 1009.2
20260505023057 67 170 1.7 4.3 0.00 0.00 0.00 73 1009.2
20260505021559 68 126 1.7 6.1 0.00 0.00 0.00 72 1009.2
20260505020056 68 169 1.7 5.2 0.00 0.00 0.00 72 1009.2
20260505014608 68 147 0.9 7.0 0.00 0.00 0.00 71 1009.2
20260505013055 69 172 1.7 5.2 0.00 0.00 0.00 70 1009.3
20260505011605 69 240 2.6 7.0 0.00 0.00 0.00 70 1009.4
20260505010054 69 178 4.3 7.8 0.00 0.00 0.00 68 1009.5
20260505004554 70 308 2.6 7.8 0.00 0.00 0.00 68 1009.6
20260505003053 70 167 1.7 9.6 0.00 0.00 0.00 66 1009.6
20260505001552 71 116 2.6 7.8 0.00 0.00 0.00 66 1009.6
20260505000106 72 183 2.6 9.6 0.00 0.00 0.00 63 1009.6
20260504234551 73 192 2.6 7.8 0.00 0.00 0.00 62 1009.8
20260504233106 74 282 3.5 7.8 0.00 0.00 0.00 61 1010.0
20260504231550 74 177 4.3 10.4 0.00 0.00 0.00 61 1010.0
20260504230050 74 178 3.5 7.8 0.00 0.00 0.00 61 1010.1
20260504224553 74 202 2.6 9.6 0.00 0.00 0.00 61 1010.2
20260504223100 74 264 1.7 7.0 0.00 0.00 0.00 60 1010.4
20260504221543 73 192 4.3 10.4 0.00 0.00 0.00 61 1010.4
20260504220039 73 144 2.6 8.7 0.00 0.00 0.00 61 1010.6
20260504214535 72 173 5.2 8.7 0.00 0.00 0.00 63 1010.8
20260504213046 71 165 2.6 7.8 0.00 0.00 0.00 63 1011.0
20260504211534 70 173 5.2 9.6 0.00 0.00 0.00 65 1011.1
20260504210028 70 229 2.6 7.8 0.00 0.00 0.00 67 1011.4
20260504204536 69 123 2.6 9.6 0.00 0.00 0.00 68 1011.6
20260504203025 67 188 1.7 7.0 0.00 0.00 0.00 69 1011.7
20260504201521 65 168 1.7 7.0 0.00 0.00 0.00 72 1011.9
20260504200024 64 216 4.3 8.7 0.00 0.00 0.00 75 1012.0
20260504194520 62 189 1.7 7.0 0.00 0.00 0.00 76 1012.0
20260504193020 62 149 2.6 8.7 0.00 0.00 0.00 75 1012.1
20260504191521 60 274 1.7 7.8 0.00 0.00 0.00 78 1012.2
20260504190019 60 162 1.7 7.0 0.00 0.00 0.00 78 1012.2
20260504184517 59 207 2.6 7.0 0.00 0.00 0.00 80 1012.3